Time,TemperatureF,DewpointF,PressureIn,WindDirection,WindDirectionDegrees,WindSpeedMPH,WindSpeedGustMPH,Humidity,HourlyPrecipIn,Conditions,Clouds,dailyrainin,SolarRadiationWatts/m^2,SoftwareType,DateUTC
2013-03-03 00:04:00,49.5,35.8,29.98,NNE,26,11.5,11.5,59,0.00,FEW,,0.00,0.0,WeatherDisplay:10.37,2013-03-02 23:04:00,
2013-03-03 00:09:00,49.4,35.7,29.98,WSW,244,12.7,12.7,59,0.00,FEW,,0.00,0.0,WeatherDisplay:10.37,2013-03-02 23:09:00,
2013-03-03 00:14:00,49.3,35.6,29.98,East,96,11.5,11.5,59,0.00,FEW,,0.00,0.0,WeatherDisplay:10.37,2013-03-02 23:14:00,
2013-03-03 00:19:00,49.1,35.8,29.98,South,187,8.1,8.1,60,0.00,FEW,,0.00,0.0,WeatherDisplay:10.37,2013-03-02 23:19:00,
2013-03-03 00:24:00,48.9,35.6,29.98,WSW,237,6.9,6.9,60,0.00,FEW,,0.00,0.0,WeatherDisplay:10.37,2013-03-02 23:24:00,
2013-03-03 00:29:00,48.9,35.6,29.97,NNE,12,16.1,16.1,60,0.00,FEW,,0.00,0.0,WeatherDisplay:10.37,2013-03-02 23:29:00,
2013-03-03 00:34:00,49.0,35.7,29.97,East,98,8.1,8.1,60,0.00,FEW,,0.00,0.0,WeatherDisplay:10.37,2013-03-02 23:34:00,
2013-03-03 00:39:00,49.0,35.7,29.98,WSW,255,8.1,8.1,60,0.00,FEW,,0.00,0.0,WeatherDisplay:10.37,2013-03-02 23:39:00,
2013-03-03 00:44:00,49.0,35.7,29.98,ESE,110,11.5,11.5,60,0.00,,,0.00,0.0,WeatherDisplay:10.37,2013-03-02 23:44:00,
2013-03-03 00:49:00,48.7,35.8,29.98,East,100,10.4,10.4,61,0.00,,,0.00,0.0,WeatherDisplay:10.37,2013-03-02 23:49:00,
2013-03-03 00:54:00,48.1,35.7,29.98,East,88,10.4,10.4,62,0.00,,,0.00,0.0,WeatherDisplay:10.37,2013-03-02 23:54:00,
2013-03-03 00:59:00,48.1,35.7,29.98,ESE,107,11.5,11.5,62,0.00,,,0.00,0.0,WeatherDisplay:10.37,2013-03-02 23:59:00,
2013-03-03 01:04:00,48.4,36.0,29.98,SE,140,11.5,11.5,62,0.00,,,0.00,0.0,WeatherDisplay:10.37,2013-03-03 00:04:00,
2013-03-03 01:09:00,48.5,35.7,29.99,East,84,12.7,12.7,61,0.00,,,0.00,0.0,WeatherDisplay:10.37,2013-03-03 00:09:00,
2013-03-03 01:15:00,48.6,35.7,29.99,ESE,116,16.1,16.1,61,0.00,,,0.00,0.0,WeatherDisplay:10.37,2013-03-03 00:15:00,
2013-03-03 01:20:00,48.6,35.7,29.99,East,82,12.7,12.7,61,0.00,,,0.00,0.0,WeatherDisplay:10.37,2013-03-03 00:20:00,
2013-03-03 01:25:00,48.3,35.9,29.99,East,93,3.0,10.0,62,0.00,,,0.00,0.0,WeatherDisplay:10.37,2013-03-03 00:25:00,
2013-03-03 01:30:00,47.9,35.9,29.99,East,99,11.5,11.5,63,0.00,,,0.00,0.0,WeatherDisplay:10.37,2013-03-03 00:30:00,
2013-03-03 01:35:00,47.9,35.9,30.00,East,91,12.7,12.7,63,0.00,,,0.00,0.0,WeatherDisplay:10.37,2013-03-03 00:35:00,
2013-03-03 01:40:00,47.9,35.9,30.00,ESE,104,7.0,12.0,63,0.00,,,0.00,0.0,WeatherDisplay:10.37,2013-03-03 00:40:00,
2013-03-03 01:45:00,47.6,36.0,29.99,East,92,11.5,11.5,64,0.00,,,0.00,0.0,WeatherDisplay:10.37,2013-03-03 00:45:00,
2013-03-03 01:50:00,47.6,36.0,29.99,East,98,11.5,11.5,64,0.00,,,0.00,0.0,WeatherDisplay:10.37,2013-03-03 00:50:00,
2013-03-03 01:55:00,47.5,35.9,29.99,East,101,8.0,13.0,64,0.00,,,0.00,0.0,WeatherDisplay:10.37,2013-03-03 00:55:00,
2013-03-03 02:00:00,47.1,35.9,29.99,ESE,103,7.0,10.0,65,0.00,,,0.00,0.0,WeatherDisplay:10.37,2013-03-03 01:00:00,
2013-03-03 02:05:00,47.2,36.0,29.99,East,90,6.0,13.0,65,0.00,,,0.00,0.0,WeatherDisplay:10.37,2013-03-03 01:05:00,
2013-03-03 02:10:00,47.4,35.8,29.99,East,82,6.0,10.0,64,0.00,,,0.00,0.0,WeatherDisplay:10.37,2013-03-03 01:10:00,
2013-03-03 02:15:00,47.3,35.7,29.99,East,90,9.0,9.0,64,0.00,,,0.00,0.0,WeatherDisplay:10.37,2013-03-03 01:15:00,
2013-03-03 02:20:00,47.0,35.8,29.99,ENE,71,3.0,9.0,65,0.00,,,0.00,0.0,WeatherDisplay:10.37,2013-03-03 01:20:00,
2013-03-03 02:25:00,46.7,35.9,29.99,SSE,148,3.5,3.5,66,0.00,,,0.00,0.0,WeatherDisplay:10.37,2013-03-03 01:25:00,
2013-03-03 02:30:00,46.7,36.3,29.99,ESE,121,3.0,5.0,67,0.00,,,0.00,0.0,WeatherDisplay:10.37,2013-03-03 01:30:00,
2013-03-03 02:35:00,46.7,36.3,29.99,ENE,70,5.0,10.0,67,0.00,,,0.00,0.0,WeatherDisplay:10.37,2013-03-03 01:35:00,
2013-03-03 02:40:00,46.6,36.2,29.99,ESE,103,8.1,8.1,67,0.00,,,0.00,0.0,WeatherDisplay:10.37,2013-03-03 01:40:00,
2013-03-03 02:45:00,46.6,36.2,29.99,East,88,9.0,9.0,67,0.00,,,0.00,0.0,WeatherDisplay:10.37,2013-03-03 01:45:00,
2013-03-03 02:50:00,46.6,36.3,29.99,East,81,2.0,9.0,67,0.00,,,0.00,0.0,WeatherDisplay:10.37,2013-03-03 01:50:00,
2013-03-03 02:55:00,46.6,36.2,29.99,ENE,78,3.0,7.0,67,0.00,,,0.00,0.0,WeatherDisplay:10.37,2013-03-03 01:55:00,
2013-03-03 03:00:00,46.5,36.1,29.99,East,98,10.4,10.4,67,0.00,,,0.00,0.0,WeatherDisplay:10.37,2013-03-03 02:00:00,
2013-03-03 03:05:00,46.7,35.9,29.99,East,99,9.0,16.0,66,0.00,,,0.00,0.0,WeatherDisplay:10.37,2013-03-03 02:05:00,
2013-03-03 03:10:00,46.6,35.8,29.99,East,98,8.0,15.0,66,0.00,,,0.00,0.0,WeatherDisplay:10.37,2013-03-03 02:10:00,
2013-03-03 03:15:00,46.6,35.5,29.99,ENE,73,10.4,10.4,65,0.00,,,0.00,0.0,WeatherDisplay:10.37,2013-03-03 02:15:00,
2013-03-03 03:20:00,46.5,35.4,29.99,East,86,10.0,10.0,65,0.00,,,0.00,0.0,WeatherDisplay:10.37,2013-03-03 02:20:00,
2013-03-03 03:25:00,46.5,35.0,29.99,ESE,118,8.1,8.1,64,0.00,,,0.00,0.0,WeatherDisplay:10.37,2013-03-03 02:25:00,
2013-03-03 03:30:00,46.6,35.1,29.99,SW,236,15.0,15.0,64,0.00,,,0.00,0.0,WeatherDisplay:10.37,2013-03-03 02:30:00,
2013-03-03 03:35:00,46.6,34.7,29.99,East,93,8.0,18.0,63,0.00,,,0.00,0.0,WeatherDisplay:10.37,2013-03-03 02:35:00,
2013-03-03 03:40:00,46.7,34.8,29.99,SSE,160,13.8,13.8,63,0.00,,,0.00,0.0,WeatherDisplay:10.37,2013-03-03 02:40:00,
2013-03-03 03:45:00,46.8,34.5,29.99,ESE,110,9.0,18.0,62,0.00,,,0.00,0.0,WeatherDisplay:10.37,2013-03-03 02:45:00,
2013-03-03 03:50:00,46.9,34.6,29.99,SE,142,11.5,11.5,62,0.00,,,0.00,0.0,WeatherDisplay:10.37,2013-03-03 02:50:00,
2013-03-03 03:55:00,46.6,34.3,29.99,SSW,200,8.1,8.1,62,0.00,,,0.00,0.0,WeatherDisplay:10.37,2013-03-03 02:55:00,
2013-03-03 04:00:00,46.4,34.5,29.99,ENE,78,7.0,14.0,63,0.00,,,0.00,0.0,WeatherDisplay:10.37,2013-03-03 03:00:00,
2013-03-03 04:05:00,46.2,34.3,30.00,ESE,104,6.0,12.0,63,0.00,,,0.00,0.0,WeatherDisplay:10.37,2013-03-03 03:05:00,
2013-03-03 04:10:00,46.1,34.2,30.00,South,170,12.7,12.7,63,0.00,,,0.00,0.0,WeatherDisplay:10.37,2013-03-03 03:10:00,
2013-03-03 04:15:00,46.1,34.2,30.00,NNE,14,10.4,10.4,63,0.00,,,0.00,0.0,WeatherDisplay:10.37,2013-03-03 03:15:00,
2013-03-03 04:20:00,46.1,33.8,30.00,ESE,113,14.0,14.0,62,0.00,,,0.00,0.0,WeatherDisplay:10.37,2013-03-03 03:20:00,
2013-03-03 04:25:00,46.3,34.0,30.00,East,98,13.8,13.8,62,0.00,,,0.00,0.0,WeatherDisplay:10.37,2013-03-03 03:25:00,
2013-03-03 04:30:00,46.3,33.6,30.00,East,95,12.0,20.0,61,0.00,,,0.00,0.0,WeatherDisplay:10.37,2013-03-03 03:30:00,
2013-03-03 04:35:00,46.3,33.6,30.00,East,99,8.0,20.0,61,0.00,,,0.00,0.0,WeatherDisplay:10.37,2013-03-03 03:35:00,
2013-03-03 04:40:00,46.3,33.6,30.00,East,93,6.0,10.0,61,0.00,,,0.00,0.0,WeatherDisplay:10.37,2013-03-03 03:40:00,
2013-03-03 04:45:00,46.1,33.3,30.00,East,90,3.0,9.0,61,0.00,,,0.00,0.0,WeatherDisplay:10.37,2013-03-03 03:45:00,
2013-03-03 04:50:00,45.9,33.6,30.00,East,87,10.4,10.4,62,0.00,,,0.00,0.0,WeatherDisplay:10.37,2013-03-03 03:50:00,
2013-03-03 04:55:00,45.8,33.5,30.00,East,85,7.0,14.0,62,0.00,,,0.00,0.0,WeatherDisplay:10.37,2013-03-03 03:55:00,
2013-03-03 05:00:00,45.9,33.6,30.00,East,92,12.7,12.7,62,0.00,,,0.00,0.0,WeatherDisplay:10.37,2013-03-03 04:00:00,
2013-03-03 05:05:00,45.8,33.1,30.01,NE,46,12.7,12.7,61,0.00,,,0.00,0.0,WeatherDisplay:10.37,2013-03-03 04:05:00,
2013-03-03 05:10:00,45.6,33.3,30.01,ESE,103,9.0,13.0,62,0.00,,,0.00,0.0,WeatherDisplay:10.37,2013-03-03 04:10:00,
2013-03-03 05:15:00,45.6,33.3,30.01,East,82,8.0,14.0,62,0.00,,,0.00,0.0,WeatherDisplay:10.37,2013-03-03 04:15:00,
2013-03-03 05:20:00,45.5,33.2,30.01,East,80,8.1,8.1,62,0.00,,,0.00,0.0,WeatherDisplay:10.37,2013-03-03 04:20:00,
2013-03-03 05:25:00,45.2,33.4,30.01,East,84,5.0,9.0,63,0.00,,,0.00,0.0,WeatherDisplay:10.37,2013-03-03 04:25:00,
2013-03-03 05:30:00,45.2,33.3,30.01,NE,37,8.1,8.1,63,0.00,,,0.00,0.0,WeatherDisplay:10.37,2013-03-03 04:30:00,
2013-03-03 05:35:00,45.1,32.8,30.01,SE,128,8.1,8.1,62,0.00,,,0.00,0.0,WeatherDisplay:10.37,2013-03-03 04:35:00,
2013-03-03 05:40:00,45.0,33.2,30.01,ENE,76,10.4,10.4,63,0.00,,,0.00,0.0,WeatherDisplay:10.37,2013-03-03 04:40:00,
2013-03-03 05:45:00,44.8,33.0,30.02,East,88,6.9,6.9,63,0.00,,,0.00,0.0,WeatherDisplay:10.37,2013-03-03 04:45:00,
2013-03-03 05:50:00,44.8,33.0,30.02,ESE,105,5.8,5.8,63,0.00,,,0.00,0.0,WeatherDisplay:10.37,2013-03-03 04:50:00,
2013-03-03 05:55:00,44.8,33.0,30.01,ENE,67,8.1,8.1,63,0.00,,,0.00,0.0,WeatherDisplay:10.37,2013-03-03 04:55:00,
2013-03-03 06:00:00,44.8,32.6,30.01,SSE,168,10.4,10.4,62,0.00,,,0.00,0.0,WeatherDisplay:10.37,2013-03-03 05:00:00,
2013-03-03 06:01:00,44.8,32.6,30.01,ENE,65,3.5,3.5,62,0.00,,,0.00,0.0,WeatherDisplay:10.37,2013-03-03 05:01:00,
2013-03-03 06:06:00,44.6,32.8,30.01,NW,323,4.6,4.6,63,0.00,,,0.00,0.0,WeatherDisplay:10.37,2013-03-03 05:06:00,
2013-03-03 06:11:00,44.6,32.8,30.01,South,178,3.5,3.5,63,0.00,,,0.00,0.0,WeatherDisplay:10.37,2013-03-03 05:11:00,
2013-03-03 06:16:00,44.9,32.7,30.01,South,190,8.1,8.1,62,0.00,,,0.00,0.0,WeatherDisplay:10.37,2013-03-03 05:16:00,
2013-03-03 06:21:00,44.9,32.7,30.01,East,95,10.0,10.0,62,0.00,,,0.00,0.0,WeatherDisplay:10.37,2013-03-03 05:21:00,
2013-03-03 06:26:00,45.1,32.8,30.01,NE,49,6.9,6.9,62,0.00,,,0.00,0.0,WeatherDisplay:10.37,2013-03-03 05:26:00,
2013-03-03 06:31:00,45.0,32.8,30.01,North,350,8.1,8.1,62,0.00,,,0.00,0.0,WeatherDisplay:10.37,2013-03-03 05:31:00,
2013-03-03 06:36:00,44.9,32.7,30.01,NW,320,4.6,4.6,62,0.00,,,0.00,5.0,WeatherDisplay:10.37,2013-03-03 05:36:00,
2013-03-03 06:41:00,44.8,32.6,30.01,SSW,204,5.0,5.0,62,0.00,FEW,,0.00,9.0,WeatherDisplay:10.37,2013-03-03 05:41:00,
2013-03-03 06:46:00,45.2,32.9,30.01,NE,38,12.7,12.7,62,0.00,SCT,,0.00,12.0,WeatherDisplay:10.37,2013-03-03 05:46:00,
2013-03-03 06:51:00,45.3,32.6,30.01,ESE,102,13.8,13.8,61,0.00,BKN,,0.00,18.0,WeatherDisplay:10.37,2013-03-03 05:51:00,
2013-03-03 06:56:00,45.6,32.5,30.01,NE,37,12.7,12.7,60,0.00,SCT,,0.00,25.0,WeatherDisplay:10.37,2013-03-03 05:56:00,
2013-03-03 07:01:00,45.8,32.7,30.02,ESE,105,11.5,11.5,60,0.00,SCT,,0.00,33.0,WeatherDisplay:10.37,2013-03-03 06:01:00,
2013-03-03 07:06:00,46.1,32.6,30.02,ESE,106,10.4,10.4,59,0.00,SCT,,0.00,46.0,WeatherDisplay:10.37,2013-03-03 06:06:00,
2013-03-03 07:11:00,46.3,32.7,30.02,ENE,75,12.7,12.7,59,0.00,SCT,,0.00,56.0,WeatherDisplay:10.37,2013-03-03 06:11:00,
2013-03-03 07:16:00,46.5,32.9,30.02,ESE,103,11.5,11.5,59,0.00,FEW,,0.00,70.0,WeatherDisplay:10.37,2013-03-03 06:16:00,
2013-03-03 07:21:00,46.7,33.1,30.02,NNE,27,6.9,6.9,59,0.00,CLR,,0.00,86.0,WeatherDisplay:10.37,2013-03-03 06:21:00,
2013-03-03 07:26:00,46.8,33.6,30.02,ENE,74,8.1,8.1,60,0.00,CLR,,0.00,104.0,WeatherDisplay:10.37,2013-03-03 06:26:00,
2013-03-03 07:31:00,46.9,33.7,30.02,NE,43,9.2,9.2,60,0.00,CLR,,0.00,121.0,WeatherDisplay:10.37,2013-03-03 06:31:00,
2013-03-03 07:36:00,47.1,33.5,30.02,NE,54,13.8,13.8,59,0.00,CLR,,0.00,139.0,WeatherDisplay:10.37,2013-03-03 06:36:00,
2013-03-03 07:41:00,47.2,34.0,30.02,ENE,76,11.5,11.5,60,0.00,CLR,,0.00,158.0,WeatherDisplay:10.37,2013-03-03 06:41:00,
2013-03-03 07:46:00,47.4,33.8,30.02,ESE,116,13.8,13.8,59,0.00,CLR,,0.00,174.0,WeatherDisplay:10.37,2013-03-03 06:46:00,
2013-03-03 07:51:00,47.6,34.0,30.02,East,92,16.1,16.1,59,0.00,CLR,,0.00,193.0,WeatherDisplay:10.37,2013-03-03 06:51:00,
2013-03-03 07:56:00,47.8,33.7,30.02,NE,49,11.5,11.5,58,0.00,CLR,,0.00,213.0,WeatherDisplay:10.37,2013-03-03 06:56:00,
2013-03-03 08:01:00,48.0,33.9,30.02,ESE,115,16.1,16.1,58,0.00,CLR,,0.00,230.0,WeatherDisplay:10.37,2013-03-03 07:01:00,
2013-03-03 08:06:00,48.1,33.6,30.02,ESE,111,16.1,16.1,57,0.00,CLR,,0.00,250.0,WeatherDisplay:10.37,2013-03-03 07:06:00,
2013-03-03 08:11:00,48.2,33.7,30.02,NE,51,12.7,12.7,57,0.00,CLR,,0.00,264.0,WeatherDisplay:10.37,2013-03-03 07:11:00,
2013-03-03 08:16:00,48.5,33.9,30.03,ESE,108,15.0,15.0,57,0.00,CLR,,0.00,279.0,WeatherDisplay:10.37,2013-03-03 07:16:00,
2013-03-03 08:21:00,48.6,34.0,30.03,East,100,13.8,13.8,57,0.00,CLR,,0.00,292.0,WeatherDisplay:10.37,2013-03-03 07:21:00,
2013-03-03 08:26:00,48.9,34.3,30.03,ESE,110,11.5,11.5,57,0.00,CLR,,0.00,306.0,WeatherDisplay:10.37,2013-03-03 07:26:00,
2013-03-03 08:31:00,49.2,34.6,30.03,ENE,64,10.4,10.4,57,0.00,CLR,,0.00,322.0,WeatherDisplay:10.37,2013-03-03 07:31:00,
2013-03-03 08:36:00,49.5,34.9,30.03,NE,51,8.1,8.1,57,0.00,CLR,,0.00,334.0,WeatherDisplay:10.37,2013-03-03 07:36:00,
2013-03-03 08:41:00,50.0,34.9,30.03,ESE,107,7.0,7.0,56,0.00,CLR,,0.00,348.0,WeatherDisplay:10.37,2013-03-03 07:41:00,
2013-03-03 08:46:00,50.4,35.3,30.04,SSW,206,3.5,3.5,56,0.00,CLR,,0.00,362.0,WeatherDisplay:10.37,2013-03-03 07:46:00,
2013-03-03 08:51:00,50.7,34.6,30.04,East,101,9.2,9.2,54,0.00,CLR,,0.00,376.0,WeatherDisplay:10.37,2013-03-03 07:51:00,
2013-03-03 08:56:00,51.0,35.4,30.04,South,171,6.0,6.0,55,0.00,CLR,,0.00,388.0,WeatherDisplay:10.37,2013-03-03 07:56:00,
2013-03-03 09:01:00,51.2,34.6,30.04,ESE,119,9.2,9.2,53,0.00,CLR,,0.00,404.0,WeatherDisplay:10.37,2013-03-03 08:01:00,
2013-03-03 09:06:00,51.0,34.0,30.04,SE,137,10.4,10.4,52,0.00,CLR,,0.00,413.0,WeatherDisplay:10.37,2013-03-03 08:06:00,
2013-03-03 09:11:00,51.5,34.9,30.03,East,92,9.0,9.0,53,0.00,CLR,,0.00,427.0,WeatherDisplay:10.37,2013-03-03 08:11:00,
2013-03-03 09:16:00,51.7,34.6,30.03,East,98,9.2,9.2,52,0.00,CLR,,0.00,441.0,WeatherDisplay:10.37,2013-03-03 08:16:00,
2013-03-03 09:21:00,51.7,34.6,30.03,SE,135,8.1,8.1,52,0.00,CLR,,0.00,455.0,WeatherDisplay:10.37,2013-03-03 08:21:00,
2013-03-03 09:26:00,51.8,34.7,30.03,ESE,109,9.2,9.2,52,0.00,CLR,,0.00,468.0,WeatherDisplay:10.37,2013-03-03 08:26:00,
2013-03-03 09:31:00,52.0,34.4,30.03,East,99,11.5,11.5,51,0.00,CLR,,0.00,478.0,WeatherDisplay:10.37,2013-03-03 08:31:00,
2013-03-03 09:36:00,52.2,34.6,30.03,East,101,8.1,8.1,51,0.00,CLR,,0.00,490.0,WeatherDisplay:10.37,2013-03-03 08:36:00,
2013-03-03 09:41:00,52.7,34.6,30.03,ESE,104,9.0,9.0,50,0.00,CLR,,0.00,503.0,WeatherDisplay:10.37,2013-03-03 08:41:00,
2013-03-03 09:46:00,53.0,33.8,30.03,ESE,123,4.6,4.6,48,0.00,CLR,,0.00,512.0,WeatherDisplay:10.37,2013-03-03 08:46:00,
2013-03-03 09:51:00,53.3,34.6,30.03,SE,144,6.9,6.9,49,0.00,CLR,,0.00,524.0,WeatherDisplay:10.37,2013-03-03 08:51:00,
2013-03-03 09:57:00,53.7,35.0,30.03,ESE,108,5.0,5.0,49,0.00,CLR,,0.00,534.0,WeatherDisplay:10.37,2013-03-03 08:57:00,
2013-03-03 10:02:00,54.2,34.9,30.03,ESE,116,5.8,5.8,48,0.00,CLR,,0.00,543.0,WeatherDisplay:10.37,2013-03-03 09:02:00,
2013-03-03 10:07:00,54.0,34.7,30.02,ENE,73,9.2,9.2,48,0.00,CLR,,0.00,554.0,WeatherDisplay:10.37,2013-03-03 09:07:00,
2013-03-03 10:12:00,53.8,34.6,30.03,NNW,347,9.2,9.2,48,0.00,CLR,,0.00,563.0,WeatherDisplay:10.37,2013-03-03 09:12:00,
2013-03-03 10:17:00,54.0,34.7,30.03,East,94,5.0,5.0,48,0.00,CLR,,0.00,571.0,WeatherDisplay:10.37,2013-03-03 09:17:00,
2013-03-03 10:22:00,54.3,33.9,30.03,ESE,121,6.9,6.9,46,0.00,CLR,,0.00,578.0,WeatherDisplay:10.37,2013-03-03 09:22:00,
2013-03-03 10:27:00,54.4,33.5,30.02,East,93,6.9,6.9,45,0.00,CLR,,0.00,591.0,WeatherDisplay:10.37,2013-03-03 09:27:00,
2013-03-03 10:32:00,54.8,33.3,30.03,ENE,69,3.5,3.5,44,0.00,CLR,,0.00,594.0,WeatherDisplay:10.37,2013-03-03 09:32:00,
2013-03-03 10:37:00,55.5,33.3,30.03,East,96,3.5,3.5,43,0.00,CLR,,0.00,601.0,WeatherDisplay:10.37,2013-03-03 09:37:00,
2013-03-03 10:42:00,56.1,33.3,30.03,SE,124,6.9,6.9,42,0.00,CLR,,0.00,610.0,WeatherDisplay:10.37,2013-03-03 09:42:00,
2013-03-03 10:47:00,55.8,32.4,30.03,East,96,3.5,3.5,41,0.00,CLR,,0.00,621.0,WeatherDisplay:10.37,2013-03-03 09:47:00,
2013-03-03 10:52:00,56.0,33.2,30.03,East,101,4.6,4.6,42,0.00,CLR,,0.00,626.0,WeatherDisplay:10.37,2013-03-03 09:52:00,
2013-03-03 10:57:00,56.5,34.8,30.03,ENE,63,3.5,3.5,44,0.00,CLR,,0.00,629.0,WeatherDisplay:10.37,2013-03-03 09:57:00,
2013-03-03 11:02:00,55.4,36.0,30.02,SW,225,6.9,6.9,48,0.00,CLR,,0.00,640.0,WeatherDisplay:10.37,2013-03-03 10:02:00,
2013-03-03 11:07:00,54.9,36.1,30.02,SW,226,3.5,3.5,49,0.00,CLR,,0.00,643.0,WeatherDisplay:10.37,2013-03-03 10:07:00,
2013-03-03 11:12:00,55.6,36.2,30.02,SW,228,8.0,8.0,48,0.00,CLR,,0.00,647.0,WeatherDisplay:10.37,2013-03-03 10:12:00,
2013-03-03 11:17:00,54.9,34.5,30.02,SSE,164,5.8,5.8,46,0.00,CLR,,0.00,652.0,WeatherDisplay:10.37,2013-03-03 10:17:00,
2013-03-03 11:22:00,55.3,34.9,30.02,SW,233,5.8,5.8,46,0.00,CLR,,0.00,654.0,WeatherDisplay:10.37,2013-03-03 10:22:00,
2013-03-03 11:27:00,56.1,35.0,30.02,SSW,203,4.6,4.6,45,0.00,CLR,,0.00,657.0,WeatherDisplay:10.37,2013-03-03 10:27:00,
2013-03-03 11:32:00,56.1,36.1,30.02,West,261,7.0,7.0,47,0.00,CLR,,0.00,659.0,WeatherDisplay:10.37,2013-03-03 10:32:00,
2013-03-03 11:37:00,56.2,35.7,30.02,SW,236,8.1,8.1,46,0.00,CLR,,0.00,661.0,WeatherDisplay:10.37,2013-03-03 10:37:00,
2013-03-03 11:42:00,56.1,36.7,30.02,West,261,6.9,6.9,48,0.00,CLR,,0.00,661.0,WeatherDisplay:10.37,2013-03-03 10:42:00,
2013-03-03 11:47:00,56.4,36.4,30.02,WSW,241,7.0,7.0,47,0.00,CLR,,0.00,668.0,WeatherDisplay:10.37,2013-03-03 10:47:00,
2013-03-03 11:52:00,55.8,36.4,30.02,SW,234,11.5,11.5,48,0.00,CLR,,0.00,670.0,WeatherDisplay:10.37,2013-03-03 10:52:00,
2013-03-03 11:57:00,55.7,36.8,30.02,SW,219,8.1,8.1,49,0.00,CLR,,0.00,673.0,WeatherDisplay:10.37,2013-03-03 10:57:00,
2013-03-03 12:02:00,56.1,37.2,30.02,NE,53,9.2,9.2,49,0.00,CLR,,0.00,675.0,WeatherDisplay:10.37,2013-03-03 11:02:00,
2013-03-03 12:07:00,56.1,37.2,30.02,ENE,75,11.5,11.5,49,0.00,CLR,,0.00,677.0,WeatherDisplay:10.37,2013-03-03 11:07:00,
2013-03-03 12:12:00,56.5,36.5,30.02,WSW,243,9.2,9.2,47,0.00,CLR,,0.00,673.0,WeatherDisplay:10.37,2013-03-03 11:12:00,
2013-03-03 12:17:00,56.2,35.7,30.02,West,267,9.0,9.0,46,0.00,CLR,,0.00,677.0,WeatherDisplay:10.37,2013-03-03 11:17:00,
2013-03-03 12:22:00,56.2,35.1,30.02,WSW,244,5.8,5.8,45,0.00,CLR,,0.00,675.0,WeatherDisplay:10.37,2013-03-03 11:22:00,
2013-03-03 12:27:00,56.7,35.6,30.02,West,265,8.1,8.1,45,0.00,CLR,,0.00,675.0,WeatherDisplay:10.37,2013-03-03 11:27:00,
2013-03-03 12:32:00,56.6,35.5,30.02,WSW,247,9.2,9.2,45,0.00,CLR,,0.00,671.0,WeatherDisplay:10.37,2013-03-03 11:32:00,
2013-03-03 12:37:00,56.7,35.6,30.02,NW,317,8.1,8.1,45,0.00,CLR,,0.00,668.0,WeatherDisplay:10.37,2013-03-03 11:37:00,
2013-03-03 12:43:00,56.4,35.3,30.02,SW,219,13.8,13.8,45,0.00,CLR,,0.00,664.0,WeatherDisplay:10.37,2013-03-03 11:43:00,
2013-03-03 12:48:00,56.5,34.8,30.02,West,271,11.5,11.5,44,0.00,CLR,,0.00,664.0,WeatherDisplay:10.37,2013-03-03 11:48:00,
2013-03-03 12:53:00,56.1,34.5,30.02,West,264,12.0,12.0,44,0.00,CLR,,0.00,661.0,WeatherDisplay:10.37,2013-03-03 11:53:00,
2013-03-03 12:58:00,56.1,35.0,30.02,West,269,10.4,10.4,45,0.00,CLR,,0.00,656.0,WeatherDisplay:10.37,2013-03-03 11:58:00,
2013-03-03 13:03:00,56.3,35.2,30.02,WSW,247,10.4,10.4,45,0.00,CLR,,0.00,650.0,WeatherDisplay:10.37,2013-03-03 12:03:00,
2013-03-03 13:08:00,56.1,35.6,30.02,West,262,10.4,10.4,46,0.00,CLR,,0.00,647.0,WeatherDisplay:10.37,2013-03-03 12:08:00,
2013-03-03 13:13:00,56.5,34.8,30.01,WSW,240,10.4,10.4,44,0.00,CLR,,0.00,643.0,WeatherDisplay:10.37,2013-03-03 12:13:00,
2013-03-03 13:18:00,57.1,37.0,30.01,West,266,8.1,8.1,47,0.00,CLR,,0.00,640.0,WeatherDisplay:10.37,2013-03-03 12:18:00,
2013-03-03 13:23:00,56.6,35.5,30.01,ESE,109,11.5,11.5,45,0.00,CLR,,0.00,636.0,WeatherDisplay:10.37,2013-03-03 12:23:00,
2013-03-03 13:28:00,56.9,35.8,30.01,WSW,257,11.5,11.5,45,0.00,CLR,,0.00,635.0,WeatherDisplay:10.37,2013-03-03 12:28:00,
2013-03-03 13:33:00,57.3,35.0,30.02,WSW,254,11.5,11.5,43,0.00,CLR,,0.00,628.0,WeatherDisplay:10.37,2013-03-03 12:33:00,
2013-03-03 13:38:00,57.2,35.5,30.01,WSW,239,9.2,9.2,44,0.00,CLR,,0.00,617.0,WeatherDisplay:10.37,2013-03-03 12:38:00,
2013-03-03 13:43:00,57.1,36.5,30.02,WSW,248,13.0,13.0,46,0.00,CLR,,0.00,606.0,WeatherDisplay:10.37,2013-03-03 12:43:00,
2013-03-03 13:48:00,56.3,35.8,30.01,WNW,284,15.0,15.0,46,0.00,CLR,,0.00,599.0,WeatherDisplay:10.37,2013-03-03 12:48:00,
2013-03-03 13:53:00,56.9,35.8,30.01,WNW,288,11.5,11.5,45,0.00,CLR,,0.00,591.0,WeatherDisplay:10.37,2013-03-03 12:53:00,
2013-03-03 13:58:00,56.4,38.0,30.02,West,273,13.8,13.8,50,0.00,CLR,,0.00,584.0,WeatherDisplay:10.37,2013-03-03 12:58:00,
2013-03-03 14:03:00,56.1,37.7,30.02,West,269,13.8,13.8,50,0.00,CLR,,0.00,573.0,WeatherDisplay:10.37,2013-03-03 13:03:00,
2013-03-03 14:08:00,56.9,37.4,30.02,WSW,240,12.7,12.7,48,0.00,CLR,,0.00,564.0,WeatherDisplay:10.37,2013-03-03 13:08:00,
2013-03-03 14:13:00,56.5,38.1,30.01,NE,49,10.4,10.4,50,0.00,CLR,,0.00,555.0,WeatherDisplay:10.37,2013-03-03 13:13:00,
2013-03-03 14:18:00,56.7,36.7,30.01,NW,306,10.4,10.4,47,0.00,CLR,,0.00,547.0,WeatherDisplay:10.37,2013-03-03 13:18:00,
2013-03-03 14:23:00,56.2,35.1,30.01,WNW,285,10.4,10.4,45,0.00,CLR,,0.00,536.0,WeatherDisplay:10.37,2013-03-03 13:23:00,
2013-03-03 14:28:00,56.7,34.4,30.01,WSW,243,11.5,11.5,43,0.00,CLR,,0.00,526.0,WeatherDisplay:10.37,2013-03-03 13:28:00,
2013-03-03 14:33:00,56.9,34.6,30.01,WSW,243,11.5,11.5,43,0.00,CLR,,0.00,515.0,WeatherDisplay:10.37,2013-03-03 13:33:00,
2013-03-03 14:38:00,56.7,36.1,30.01,West,271,15.0,15.0,46,0.00,CLR,,0.00,506.0,WeatherDisplay:10.37,2013-03-03 13:38:00,
2013-03-03 14:43:00,56.8,37.3,30.01,WSW,257,11.0,11.0,48,0.00,CLR,,0.00,492.0,WeatherDisplay:10.37,2013-03-03 13:43:00,
2013-03-03 14:48:00,56.3,39.9,30.01,WSW,243,15.0,15.0,54,0.00,CLR,,0.00,482.0,WeatherDisplay:10.37,2013-03-03 13:48:00,
2013-03-03 14:53:00,56.8,39.4,30.01,West,276,11.5,11.5,52,0.00,CLR,,0.00,471.0,WeatherDisplay:10.37,2013-03-03 13:53:00,
2013-03-03 14:58:00,56.5,37.0,30.01,West,281,15.0,15.0,48,0.00,CLR,,0.00,459.0,WeatherDisplay:10.37,2013-03-03 13:58:00,
2013-03-03 15:03:00,56.9,37.4,30.00,NW,312,10.4,10.4,48,0.00,CLR,,0.00,445.0,WeatherDisplay:10.37,2013-03-03 14:03:00,
2013-03-03 15:08:00,56.5,36.0,30.01,SW,231,16.1,16.1,46,0.00,CLR,,0.00,432.0,WeatherDisplay:10.37,2013-03-03 14:08:00,
2013-03-03 15:13:00,57.0,37.5,30.00,SSW,205,13.8,13.8,48,0.00,CLR,,0.00,420.0,WeatherDisplay:10.37,2013-03-03 14:13:00,
2013-03-03 15:18:00,56.8,37.8,30.01,WNW,291,13.8,13.8,49,0.00,CLR,,0.00,404.0,WeatherDisplay:10.37,2013-03-03 14:18:00,
2013-03-03 15:23:00,56.9,38.4,30.00,WSW,242,10.4,10.4,50,0.00,CLR,,0.00,394.0,WeatherDisplay:10.37,2013-03-03 14:23:00,
2013-03-03 15:28:00,57.4,38.4,30.01,West,264,14.0,14.0,49,0.00,CLR,,0.00,380.0,WeatherDisplay:10.37,2013-03-03 14:28:00,
2013-03-03 15:33:00,56.8,38.9,30.01,NW,324,16.1,16.1,51,0.00,CLR,,0.00,364.0,WeatherDisplay:10.37,2013-03-03 14:33:00,
2013-03-03 15:38:00,56.7,39.7,30.01,SW,234,12.7,12.7,53,0.00,CLR,,0.00,352.0,WeatherDisplay:10.37,2013-03-03 14:38:00,
2013-03-03 15:43:00,57.3,38.8,30.00,WSW,252,10.4,10.4,50,0.00,CLR,,0.00,338.0,WeatherDisplay:10.37,2013-03-03 14:43:00,
2013-03-03 15:48:00,56.6,41.1,30.00,WNW,287,15.0,15.0,56,0.00,CLR,,0.00,323.0,WeatherDisplay:10.37,2013-03-03 14:48:00,
2013-03-03 15:53:00,56.9,41.8,30.01,SW,232,12.7,12.7,57,0.00,CLR,,0.00,308.0,WeatherDisplay:10.37,2013-03-03 14:53:00,
2013-03-03 15:58:00,56.7,42.1,30.01,WSW,250,15.0,15.0,58,0.00,CLR,,0.00,294.0,WeatherDisplay:10.37,2013-03-03 14:58:00,
2013-03-03 16:03:00,56.4,42.2,30.01,West,267,14.0,14.0,59,0.00,CLR,,0.00,281.0,WeatherDisplay:10.37,2013-03-03 15:03:00,
2013-03-03 16:08:00,56.6,42.9,30.00,West,264,12.7,12.7,60,0.00,CLR,,0.00,267.0,WeatherDisplay:10.37,2013-03-03 15:08:00,
2013-03-03 16:13:00,56.7,43.0,30.01,West,261,14.0,14.0,60,0.00,CLR,,0.00,253.0,WeatherDisplay:10.37,2013-03-03 15:13:00,
2013-03-03 16:18:00,56.5,43.6,30.01,SW,234,16.1,16.1,62,0.00,CLR,,0.00,239.0,WeatherDisplay:10.37,2013-03-03 15:18:00,
2013-03-03 16:23:00,56.7,43.8,30.01,WSW,251,12.7,12.7,62,0.00,CLR,,0.00,223.0,WeatherDisplay:10.37,2013-03-03 15:23:00,
2013-03-03 16:28:00,57.2,44.3,30.00,SW,222,10.0,10.0,62,0.00,CLR,,0.00,207.0,WeatherDisplay:10.37,2013-03-03 15:28:00,
2013-03-03 16:33:00,57.3,44.0,30.00,West,270,11.5,11.5,61,0.00,CLR,,0.00,193.0,WeatherDisplay:10.37,2013-03-03 15:33:00,
2013-03-03 16:38:00,57.5,43.7,30.00,WSW,252,6.9,6.9,60,0.00,CLR,,0.00,183.0,WeatherDisplay:10.37,2013-03-03 15:38:00,
2013-03-03 16:43:00,57.3,43.5,30.00,WNW,291,13.8,13.8,60,0.00,CLR,,0.00,167.0,WeatherDisplay:10.37,2013-03-03 15:43:00,
2013-03-03 16:48:00,56.9,44.0,30.00,WSW,239,11.5,11.5,62,0.00,CLR,,0.00,151.0,WeatherDisplay:10.37,2013-03-03 15:48:00,
2013-03-03 16:53:00,57.2,43.9,30.00,SW,227,9.2,9.2,61,0.00,CLR,,0.00,135.0,WeatherDisplay:10.37,2013-03-03 15:53:00,
2013-03-03 16:58:00,57.0,44.1,30.00,West,270,11.5,11.5,62,0.00,CLR,,0.00,120.0,WeatherDisplay:10.37,2013-03-03 15:58:00,
2013-03-03 17:03:00,56.3,43.4,30.01,WNW,285,10.4,10.4,62,0.00,CLR,,0.00,104.0,WeatherDisplay:10.37,2013-03-03 16:03:00,
2013-03-03 17:08:00,56.3,42.6,30.01,West,275,11.5,11.5,60,0.00,CLR,,0.00,88.0,WeatherDisplay:10.37,2013-03-03 16:08:00,
2013-03-03 17:13:00,56.5,43.2,30.01,WSW,246,9.2,9.2,61,0.00,FEW,,0.00,70.0,WeatherDisplay:10.37,2013-03-03 16:13:00,
2013-03-03 17:18:00,56.2,43.3,30.01,WNW,288,12.0,12.0,62,0.00,FEW,,0.00,60.0,WeatherDisplay:10.37,2013-03-03 16:18:00,
2013-03-03 17:23:00,55.9,42.6,30.01,NW,311,9.2,9.2,61,0.00,SCT,,0.00,47.0,WeatherDisplay:10.37,2013-03-03 16:23:00,
2013-03-03 17:28:00,55.8,43.0,30.01,West,266,11.5,11.5,62,0.00,SCT,,0.00,37.0,WeatherDisplay:10.37,2013-03-03 16:28:00,
2013-03-03 17:33:00,55.7,43.3,30.02,West,276,6.9,6.9,63,0.00,SCT,,0.00,26.0,WeatherDisplay:10.37,2013-03-03 16:33:00,
2013-03-03 17:38:00,55.4,43.8,30.01,WNW,296,11.0,11.0,65,0.00,SCT,,0.00,19.0,WeatherDisplay:10.37,2013-03-03 16:38:00,
2013-03-03 17:44:00,55.2,43.6,30.02,WSW,248,7.0,7.0,65,0.00,SCT,,0.00,14.0,WeatherDisplay:10.37,2013-03-03 16:44:00,
2013-03-03 17:49:00,55.0,43.0,30.02,NW,304,7.0,7.0,64,0.00,SCT,,0.00,9.0,WeatherDisplay:10.37,2013-03-03 16:49:00,
2013-03-03 17:54:00,54.7,43.2,30.02,WSW,250,9.2,9.2,65,0.00,,,0.00,5.0,WeatherDisplay:10.37,2013-03-03 16:54:00,
2013-03-03 17:59:00,54.5,42.6,30.02,West,268,8.1,8.1,64,0.00,,,0.00,0.0,WeatherDisplay:10.37,2013-03-03 16:59:00,
2013-03-03 18:04:00,54.3,43.2,30.02,West,279,6.9,6.9,66,0.00,CLR,,0.00,0.0,WeatherDisplay:10.37,2013-03-03 17:04:00,
2013-03-03 18:09:00,54.1,43.0,30.02,WNW,299,6.9,6.9,66,0.00,CLR,,0.00,0.0,WeatherDisplay:10.37,2013-03-03 17:09:00,
2013-03-03 18:14:00,53.9,42.8,30.02,NW,309,6.0,6.0,66,0.00,CLR,,0.00,0.0,WeatherDisplay:10.37,2013-03-03 17:14:00,
2013-03-03 18:19:00,53.6,42.5,30.02,NW,316,8.1,8.1,66,0.00,CLR,,0.00,0.0,WeatherDisplay:10.37,2013-03-03 17:19:00,
2013-03-03 18:24:00,53.3,42.6,30.02,NNW,329,7.0,7.0,67,0.00,CLR,,0.00,0.0,WeatherDisplay:10.37,2013-03-03 17:24:00,
2013-03-03 18:29:00,53.2,42.5,30.03,NNW,328,3.5,3.5,67,0.00,CLR,,0.00,0.0,WeatherDisplay:10.37,2013-03-03 17:29:00,
2013-03-03 18:34:00,53.0,42.3,30.03,NNW,331,5.8,5.8,67,0.00,CLR,,0.00,0.0,WeatherDisplay:10.37,2013-03-03 17:34:00,
2013-03-03 18:39:00,53.0,42.3,30.03,NW,320,3.5,3.5,67,0.00,CLR,,0.00,0.0,WeatherDisplay:10.37,2013-03-03 17:39:00,
2013-03-03 18:44:00,53.0,42.3,30.03,NW,320,1.2,0.0,67,0.00,CLR,,0.00,0.0,WeatherDisplay:10.37,2013-03-03 17:44:00,
2013-03-03 18:49:00,52.9,42.2,30.03,NW,320,1.0,0.0,67,0.00,CLR,,0.00,0.0,WeatherDisplay:10.37,2013-03-03 17:49:00,
2013-03-03 18:54:00,52.7,42.4,30.03,East,101,0.0,0.0,68,0.00,CLR,,0.00,0.0,WeatherDisplay:10.37,2013-03-03 17:54:00,
2013-03-03 18:59:00,52.5,41.5,30.03,East,82,0.0,0.0,66,0.00,CLR,,0.00,0.0,WeatherDisplay:10.37,2013-03-03 17:59:00,
2013-03-03 19:04:00,52.2,41.2,30.03,NNE,17,1.2,1.2,66,0.00,,,0.00,0.0,WeatherDisplay:10.37,2013-03-03 18:04:00,
2013-03-03 19:09:00,51.9,40.9,30.04,NNE,30,3.5,3.5,66,0.00,,,0.00,0.0,WeatherDisplay:10.37,2013-03-03 18:09:00,
2013-03-03 19:14:00,51.7,40.3,30.04,NE,46,3.5,3.5,65,0.00,,,0.00,0.0,WeatherDisplay:10.37,2013-03-03 18:14:00,
2013-03-03 19:19:00,51.6,40.2,30.04,NE,38,3.5,3.5,65,0.00,,,0.00,0.0,WeatherDisplay:10.37,2013-03-03 18:19:00,
2013-03-03 19:24:00,51.5,40.1,30.04,NNE,30,3.5,3.5,65,0.00,,,0.00,0.0,WeatherDisplay:10.37,2013-03-03 18:24:00,
2013-03-03 19:29:00,51.5,40.5,30.04,WNW,288,1.2,1.2,66,0.00,,,0.00,0.0,WeatherDisplay:10.37,2013-03-03 18:29:00,
2013-03-03 19:34:00,51.4,40.8,30.04,NW,316,1.2,0.0,67,0.00,,,0.00,0.0,WeatherDisplay:10.37,2013-03-03 18:34:00,
2013-03-03 19:39:00,51.3,40.7,30.04,South,183,2.3,2.3,67,0.00,,,0.00,0.0,WeatherDisplay:10.37,2013-03-03 18:39:00,
2013-03-03 19:44:00,51.3,41.1,30.05,South,184,3.5,3.5,68,0.00,,,0.00,0.0,WeatherDisplay:10.37,2013-03-03 18:44:00,
2013-03-03 19:49:00,51.1,40.9,30.05,SSW,205,3.5,3.5,68,0.00,,,0.00,0.0,WeatherDisplay:10.37,2013-03-03 18:49:00,
2013-03-03 19:54:00,50.8,41.0,30.05,NE,42,3.5,3.5,69,0.00,,,0.00,0.0,WeatherDisplay:10.37,2013-03-03 18:54:00,
2013-03-03 19:59:00,50.5,41.1,30.05,ESE,115,4.6,4.6,70,0.00,,,0.00,0.0,WeatherDisplay:10.37,2013-03-03 18:59:00,
2013-03-03 20:04:00,50.2,41.5,30.05,East,92,4.6,4.6,72,0.00,CLR,,0.00,0.0,WeatherDisplay:10.37,2013-03-03 19:04:00,
2013-03-03 20:09:00,49.9,41.2,30.05,East,88,6.9,6.9,72,0.00,CLR,,0.00,0.0,WeatherDisplay:10.37,2013-03-03 19:09:00,
2013-03-03 20:14:00,49.9,41.6,30.05,East,99,7.0,7.0,73,0.00,CLR,,0.00,0.0,WeatherDisplay:10.37,2013-03-03 19:14:00,
2013-03-03 20:19:00,50.0,41.7,30.05,East,99,5.8,5.8,73,0.00,CLR,,0.00,0.0,WeatherDisplay:10.37,2013-03-03 19:19:00,
2013-03-03 20:24:00,50.1,41.8,30.06,East,86,5.0,5.0,73,0.00,CLR,,0.00,0.0,WeatherDisplay:10.37,2013-03-03 19:24:00,
2013-03-03 20:29:00,50.1,41.8,30.06,East,86,4.6,4.6,73,0.00,CLR,,0.00,0.0,WeatherDisplay:10.37,2013-03-03 19:29:00,
2013-03-03 20:34:00,50.2,41.5,30.06,East,97,3.5,3.5,72,0.00,CLR,,0.00,0.0,WeatherDisplay:10.37,2013-03-03 19:34:00,
2013-03-03 20:39:00,50.2,41.5,30.06,East,97,0.0,0.1,72,0.00,CLR,,0.00,0.0,WeatherDisplay:10.37,2013-03-03 19:39:00,
2013-03-03 20:44:00,50.2,41.5,30.07,SSW,196,1.2,1.2,72,0.00,CLR,,0.00,0.0,WeatherDisplay:10.37,2013-03-03 19:44:00,
2013-03-03 20:49:00,50.1,41.4,30.07,SW,217,1.2,1.2,72,0.00,CLR,,0.00,0.0,WeatherDisplay:10.37,2013-03-03 19:49:00,
2013-03-03 20:54:00,50.1,41.4,30.07,South,170,1.2,1.2,72,0.00,CLR,,0.00,0.0,WeatherDisplay:10.37,2013-03-03 19:54:00,
2013-03-03 20:59:00,50.1,41.4,30.07,SSE,165,1.2,0.0,72,0.00,CLR,,0.00,0.0,WeatherDisplay:10.37,2013-03-03 19:59:00,
2013-03-03 21:04:00,50.0,41.3,30.07,South,187,1.2,1.2,72,0.00,CLR,,0.00,0.0,WeatherDisplay:10.37,2013-03-03 20:04:00,
2013-03-03 21:09:00,49.9,41.6,30.07,SSE,166,1.2,0.0,73,0.00,CLR,,0.00,0.0,WeatherDisplay:10.37,2013-03-03 20:09:00,
2013-03-03 21:14:00,49.9,41.6,30.07,SSW,199,2.3,2.3,73,0.00,CLR,,0.00,0.0,WeatherDisplay:10.37,2013-03-03 20:14:00,
2013-03-03 21:19:00,49.9,41.6,30.07,SW,227,0.0,0.4,73,0.00,CLR,,0.00,0.0,WeatherDisplay:10.37,2013-03-03 20:19:00,
2013-03-03 21:24:00,49.9,41.6,30.07,SW,215,2.3,2.3,73,0.00,CLR,,0.00,0.0,WeatherDisplay:10.37,2013-03-03 20:24:00,
2013-03-03 21:29:00,49.8,41.5,30.08,SSW,212,1.2,1.2,73,0.00,CLR,,0.00,0.0,WeatherDisplay:10.37,2013-03-03 20:29:00,
2013-03-03 21:34:00,49.7,41.4,30.08,SSW,212,0.0,0.0,73,0.00,CLR,,0.00,0.0,WeatherDisplay:10.37,2013-03-03 20:34:00,
2013-03-03 21:39:00,49.6,41.3,30.08,SSE,159,1.2,1.2,73,0.00,CLR,,0.00,0.0,WeatherDisplay:10.37,2013-03-03 20:39:00,
2013-03-03 21:44:00,49.5,41.6,30.08,SSE,159,1.2,1.2,74,0.00,CLR,,0.00,0.0,WeatherDisplay:10.37,2013-03-03 20:44:00,
2013-03-03 21:49:00,49.5,41.6,30.08,SSW,193,2.3,2.3,74,0.00,CLR,,0.00,0.0,WeatherDisplay:10.37,2013-03-03 20:49:00,
2013-03-03 21:54:00,49.4,41.5,30.08,SSE,150,1.2,1.2,74,0.00,CLR,,0.00,0.0,WeatherDisplay:10.37,2013-03-03 20:54:00,
2013-03-03 21:59:00,49.3,41.4,30.08,South,176,1.2,1.2,74,0.00,CLR,,0.00,0.0,WeatherDisplay:10.37,2013-03-03 20:59:00,
2013-03-03 22:04:00,49.3,41.4,30.08,South,172,1.2,1.2,74,0.00,CLR,,0.00,0.0,WeatherDisplay:10.37,2013-03-03 21:04:00,
2013-03-03 22:09:00,49.2,41.3,30.08,SSW,206,1.2,1.2,74,0.00,CLR,,0.00,0.0,WeatherDisplay:10.37,2013-03-03 21:09:00,
2013-03-03 22:14:00,49.0,41.1,30.08,South,179,2.0,2.0,74,0.00,CLR,,0.00,0.0,WeatherDisplay:10.37,2013-03-03 21:14:00,
2013-03-03 22:19:00,48.9,41.0,30.08,South,175,1.2,1.2,74,0.00,CLR,,0.00,0.0,WeatherDisplay:10.37,2013-03-03 21:19:00,
2013-03-03 22:24:00,48.8,40.9,30.09,South,175,0.0,0.0,74,0.00,CLR,,0.00,0.0,WeatherDisplay:10.37,2013-03-03 21:24:00,
2013-03-03 22:29:00,48.7,40.8,30.09,SE,136,1.2,1.2,74,0.00,CLR,,0.00,0.0,WeatherDisplay:10.37,2013-03-03 21:29:00,
2013-03-03 22:34:00,48.6,41.0,30.08,SE,136,1.2,1.2,75,0.00,CLR,,0.00,0.0,WeatherDisplay:10.37,2013-03-03 21:34:00,
2013-03-03 22:39:00,48.6,41.0,30.08,NE,56,2.3,2.3,75,0.00,CLR,,0.00,0.0,WeatherDisplay:10.37,2013-03-03 21:39:00,
2013-03-03 22:44:00,48.5,40.9,30.08,NE,56,0.0,0.0,75,0.00,CLR,,0.00,0.0,WeatherDisplay:10.37,2013-03-03 21:44:00,
2013-03-03 22:49:00,48.4,40.8,30.08,North,360,2.3,2.3,75,0.00,CLR,,0.00,0.0,WeatherDisplay:10.37,2013-03-03 21:49:00,
2013-03-03 22:54:00,48.4,41.2,30.08,NNE,26,2.3,2.3,76,0.00,CLR,,0.00,0.0,WeatherDisplay:10.37,2013-03-03 21:54:00,
2013-03-03 22:59:00,48.5,41.3,30.08,NNE,17,3.5,3.5,76,0.00,CLR,,0.00,0.0,WeatherDisplay:10.37,2013-03-03 21:59:00,
2013-03-03 23:04:00,48.7,41.5,30.08,NNE,14,3.5,3.5,76,0.00,,,0.00,0.0,WeatherDisplay:10.37,2013-03-03 22:04:00,
2013-03-03 23:09:00,48.8,41.6,30.08,NNE,22,4.6,4.6,76,0.00,,,0.00,0.0,WeatherDisplay:10.37,2013-03-03 22:09:00,
2013-03-03 23:14:00,48.8,41.6,30.08,NNE,15,3.5,3.5,76,0.00,,,0.00,0.0,WeatherDisplay:10.37,2013-03-03 22:14:00,
2013-03-03 23:19:00,48.9,41.7,30.08,NNE,32,3.5,3.5,76,0.00,,,0.00,0.0,WeatherDisplay:10.37,2013-03-03 22:19:00,
2013-03-03 23:24:00,48.8,41.6,30.08,NNE,24,3.5,3.5,76,0.00,,,0.00,0.0,WeatherDisplay:10.37,2013-03-03 22:24:00,
2013-03-03 23:29:00,48.5,41.0,30.08,NNE,19,1.0,2.0,75,0.00,,,0.00,0.0,WeatherDisplay:10.37,2013-03-03 22:29:00,
2013-03-03 23:34:00,47.9,40.4,30.08,NNE,19,1.2,1.2,75,0.00,,,0.00,0.0,WeatherDisplay:10.37,2013-03-03 22:34:00,
2013-03-03 23:39:00,47.3,40.1,30.08,North,355,1.0,1.0,76,0.00,,,0.00,0.0,WeatherDisplay:10.37,2013-03-03 22:39:00,
2013-03-03 23:44:00,46.9,40.1,30.08,NNE,12,1.0,2.0,77,0.00,,,0.00,0.0,WeatherDisplay:10.37,2013-03-03 22:44:00,
2013-03-03 23:49:00,46.6,39.8,30.08,NW,304,2.3,2.3,77,0.00,,,0.00,0.0,WeatherDisplay:10.37,2013-03-03 22:49:00,
2013-03-03 23:54:00,46.6,40.1,30.08,NW,318,0.0,2.0,78,0.00,,,0.00,0.0,WeatherDisplay:10.37,2013-03-03 22:54:00,
2013-03-03 23:59:00,47.0,40.5,30.09,SE,137,0.0,2.0,78,0.00,,,0.00,0.0,WeatherDisplay:10.37,2013-03-03 22:59:00,